Lapse_Rate
7.8 7.7 7.6 8.0 8.4 9.3 9.4 9.2 9.4 9.1 7.9 7.3 7.3 7.2 6.3 6.5 6.1 6.0 6.7 6.2 6.0 5.9 5.6 5.4 5.3 5.3 5.2 5.2 5.3 5.2 5.2 5.0 4.9 5.0 5.1 5.2 5.5 5.7 5.7 6.0 6.2 6.4 6.6 6.7
8.0 7.4 8.0 8.2 8.5 8.8 8.7 9.0 9.1 8.8 7.8 7.5 7.8 7.4 6.9 6.4 6.7 5.9 5.9 6.3 6.1 5.4 5.2 5.5 5.4 5.3 5.0 5.0 5.3 5.2 5.2 5.1 5.1 5.2 5.2 5.4 5.8 5.9 5.9 6.3 6.7 6.8 6.8 6.8
8.0 7.8 8.3 8.4 8.4 8.4 8.7 8.9 9.2 9.0 8.0 7.7 7.7 8.0 7.3 6.3 6.7 5.8 5.9 5.8 5.9 5.4 5.2 5.7 5.6 5.3 5.0 5.1 5.3 5.1 5.1 5.1 5.2 5.3 5.5 5.6 5.9 6.0 6.2 6.6 6.9 7.1 7.3 7.3
8.0 8.4 8.4 8.4 8.4 8.4 9.0 9.0 8.9 8.7 8.4 9.4 8.1 9.4 8.1 7.0 7.1 6.5 6.4 6.1 6.3 6.0 5.8 5.9 5.7 5.4 5.2 5.2 5.1 5.0 5.1 5.1 5.3 5.5 5.7 5.9 6.0 6.3 6.5 7.0 7.2 7.4 7.4 7.5
7.6 8.0 7.9 8.0 8.1 8.4 8.9 9.2 8.9 8.8 8.7 9.2 9.0 8.6 9.5 7.8 6.6 6.5 6.8 6.5 6.2 6.3 6.4 6.4 6.0 5.7 5.4 5.2 5.1 5.1 5.1 5.3 5.5 5.8 6.0 6.1 6.5 6.6 6.6 7.1 7.3 7.5 7.6 7.7
7.8 7.8 7.9 7.8 8.3 8.7 9.1 8.8 8.9 8.7 9.0 9.6 9.4 9.1 9.6 9.0 7.9 7.0 6.5 6.6 6.7 6.3 6.4 6.2 5.8 5.4 5.4 5.2 5.1 5.2 5.4 5.6 5.9 6.1 6.4 6.6 6.9 6.8 6.8 7.0 7.2 7.6 7.6 7.8
7.2 7.6 7.6 7.9 8.3 8.8 8.8 9.0 9.5 9.6 9.7 9.7 9.2 9.0 9.2 9.3 8.4 7.8 7.2 7.1 6.9 6.8 6.6 6.4 6.2 5.9 5.6 5.6 5.5 5.5 5.7 6.0 6.2 6.4 6.8 6.9 7.0 7.0 7.1 7.3 7.5 7.7 7.8 7.9
7.5 7.7 7.4 7.3 8.2 8.4 8.5 9.3 9.6 9.3 9.4 9.8 8.7 9.1 9.4 8.9 8.7 8.0 7.5 7.2 6.8 7.0 7.0 6.8 6.7 6.4 6.2 5.9 5.9 5.9 6.0 6.2 6.3 6.7 6.9 7.1 7.2 7.1 7.3 7.5 7.7 7.9 8.0 7.9
7.9 7.9 7.7 7.5 7.8 8.3 8.6 9.0 9.5 9.5 9.3 9.5 9.5 9.1 9.0 9.2 8.7 8.2 7.7 6.8 6.8 7.1 7.1 6.9 6.9 6.7 6.5 6.3 6.3 6.3 6.2 6.3 6.6 6.8 7.0 7.2 7.3 7.3 7.4 7.5 7.7 7.9 7.9 7.9
8.0 8.1 7.7 7.6 7.7 8.2 8.9 8.7 9.5 9.6 9.4 9.4 9.7 9.6 9.6 9.2 9.1 8.2 7.6 7.1 6.9 7.0 7.0 6.9 7.0 6.9 6.8 6.6 6.4 6.3 6.3 6.5 6.7 6.9 7.1 7.2 7.3 7.3 7.4 7.6 7.8 8.0 8.0 8.0
8.0 7.9 8.2 7.9 7.5 8.1 8.1 9.0 9.3 9.6 9.4 9.8 9.8 9.7 9.6 9.3 8.8 7.8 7.5 6.7 7.1 7.2 7.1 7.0 7.0 6.9 6.8 6.7 6.6 6.4 6.4 6.7 6.9 7.0 7.1 7.2 7.3 7.4 7.4 7.6 7.9 8.1 8.2 8.2
7.2 7.7 8.4 7.8 7.7 8.1 8.2 8.5 8.6 9.6 9.5 9.4 9.5 9.7 9.3 9.0 8.8 8.0 7.4 7.1 7.2 7.5 7.4 7.2 7.1 7.1 7.0 7.0 6.8 6.7 6.6 6.8 6.9 7.0 7.1 7.2 7.4 7.6 7.5 7.7 8.0 8.2 8.4 8.2
7.2 7.5 8.3 8.0 8.0 7.9 8.4 8.4 8.9 9.1 9.4 9.2 9.7 9.6 9.2 8.9 8.9 8.0 7.4 7.6 7.4 7.6 7.5 7.3 7.2 7.4 7.4 7.3 7.1 7.0 7.0 7.0 7.1 7.1 7.2 7.4 7.6 7.6 7.8 8.0 8.2 8.2 8.3 8.2
6.5 7.0 7.8 8.1 7.7 8.1 8.3 8.4 8.9 9.0 9.5 9.5 9.1 9.6 9.2 9.2 8.6 8.3 7.8 7.9 7.7 7.8 7.7 7.8 7.7 7.7 7.7 7.6 7.4 7.3 7.2 7.2 7.2 7.3 7.5 7.6 7.8 7.8 8.2 8.3 8.3 8.4 8.3 8.2
5.5 6.8 7.4 7.9 8.8 8.3 7.9 8.1 8.7 9.0 9.3 9.5 9.5 9.2 9.6 9.4 8.8 8.6 7.8 7.9 8.1 8.2 8.2 8.3 8.3 8.1 7.9 7.7 7.6 7.5 7.4 7.3 7.5 7.6 7.7 8.0 7.9 8.1 8.2 8.4 8.4 8.4 8.3 8.2
5.2 6.2 7.2 7.4 7.8 7.8 8.4 8.2 8.5 8.5 8.7 9.5 9.3 9.4 9.1 9.2 8.8 8.4 8.8 8.9 8.7 8.7 8.6 8.6 8.5 8.3 8.1 8.0 7.9 7.8 7.8 7.9 7.8 7.7 8.1 8.0 8.1 8.2 8.4 8.5 8.5 8.6 8.4 8.2
4.9 5.8 6.2 6.9 7.5 7.6 7.7 8.0 8.3 8.6 8.4 8.6 8.9 9.1 9.3 9.2 8.8 8.7 8.0 8.6 9.0 9.1 9.1 9.0 8.9 8.7 8.6 8.4 8.3 8.1 8.1 8.1 8.0 8.2 8.3 8.1 8.0 8.1 8.3 8.3 8.6 8.6 8.4 7.8
4.0 4.1 5.1 7.3 7.8 8.1 7.4 7.9 8.2 8.5 8.4 8.3 8.7 8.6 9.0 9.0 9.0 8.9 8.6 8.5 8.6 8.8 9.1 9.2 9.1 9.0 8.9 8.6 8.5 8.3 8.2 8.2 8.4 8.6 8.2 8.1 8.1 8.0 8.0 8.1 8.4 8.6 8.3 8.0
4.5 4.3 5.8 7.0 7.8 7.7 7.6 7.9 7.8 7.8 7.4 7.7 7.9 8.2 8.6 8.8 8.9 8.7 8.5 8.6 8.6 8.8 9.1 9.1 9.1 9.1 8.9 8.9 8.8 8.7 8.6 8.7 8.6 8.6 8.6 8.4 8.3 8.1 8.1 8.3 8.4 8.5 8.5 8.2
5.4 4.7 5.0 6.6 7.6 8.2 8.0 7.8 7.6 7.8 7.5 7.5 7.4 7.5 8.1 8.4 8.4 8.6 8.9 8.7 9.0 9.1 9.2 9.1 9.2 9.2 9.2 9.0 8.8 8.8 8.8 8.7 8.8 8.7 8.7 8.4 8.3 8.4 8.5 8.5 8.5 8.4 8.4 8.3
6.1 5.1 4.9 5.6 6.6 7.9 7.3 8.0 7.5 7.6 7.5 7.7 7.3 7.2 7.6 8.2 8.2 8.6 8.9 8.9 8.9 9.0 9.1 9.1 9.2 9.4 9.5 9.4 9.0 8.9 8.9 8.9 9.0 8.8 8.8 8.7 8.7 8.7 8.7 8.7 8.6 8.4 8.4 8.3
6.7 5.8 5.6 5.7 6.3 7.2 7.1 7.0 7.3 7.5 7.6 7.6 7.6 7.5 7.5 8.2 8.4 8.7 8.8 8.8 8.9 8.9 9.1 9.1 9.2 9.4 9.6 9.5 9.4 9.4 9.1 9.0 9.0 8.9 8.7 8.7 8.7 8.8 8.9 8.7 8.5 8.5 8.5 8.3
7.1 7.1 7.4 6.5 6.5 6.8 7.3 7.3 7.1 7.2 7.3 7.2 7.4 7.1 7.3 7.4 8.0 8.5 8.7 8.7 8.8 8.9 9.0 9.0 9.2 9.3 9.5 9.6 9.5 9.2 9.3 9.2 9.1 8.9 8.7 8.8 8.8 8.9 9.2 9.0 8.6 8.4 8.3 8.1
6.9 6.5 6.5 5.6 6.3 6.3 7.2 6.8 7.2 7.2 7.3 7.1 7.1 7.5 7.7 7.8 7.7 7.8 8.4 8.6 8.7 8.9 8.9 9.0 9.3 9.4 9.5 9.6 9.5 9.3 9.3 9.2 9.3 9.1 9.0 9.1 9.1 9.2 9.3 9.2 9.0 8.8 8.3 8.0
6.4 6.2 6.0 5.9 5.4 6.9 6.9 7.0 7.0 7.2 7.5 7.5 7.4 7.5 7.6 7.9 8.0 8.1 8.3 8.4 8.6 8.8 8.9 9.0 9.2 9.3 9.5 9.6 9.6 9.5 9.3 9.1 9.2 9.2 9.1 9.1 9.2 9.3 9.3 9.2 8.9 8.7 8.3 8.1
6.1 5.6 6.3 6.1 5.6 6.1 6.1 6.5 6.7 6.8 7.1 7.7 7.5 7.5 7.5 7.6 8.2 8.5 8.4 8.3 8.5 8.7 8.7 8.9 9.1 9.3 9.5 9.6 9.5 9.3 9.2 9.2 9.2 9.2 9.2 9.2 9.3 9.3 9.1 9.0 8.8 8.6 8.3 8.1
Wind_Speed
19 14 19 20 17 17 7 8 8 4 3 10 11 8 15 16 17 19 21 20 21 21 20 19 18 17 15 15 15 14 12 10 7 7 6 5 5 4 3 3 1 1 4 6
18 22 23 20 18 16 14 11 11 4 3 11 8 10 10 18 20 18 20 21 22 21 20 20 20 19 18 17 16 15 14 12 9 7 5 3 2 2 3 3 2 0 3 5
27 22 23 21 17 17 16 14 10 11 6 12 9 14 13 17 18 18 19 20 21 22 22 22 22 21 19 19 18 16 15 13 11 9 6 4 4 5 5 4 3 4 3 5
27 24 24 23 23 20 19 14 11 7 10 8 5 8 14 18 21 21 20 20 21 22 22 21 22 21 20 19 18 17 16 14 12 12 9 8 6 5 2 2 0 3 2 4
21 26 22 22 26 23 19 6 11 10 11 12 11 7 6 16 16 23 23 22 21 22 23 23 22 21 21 19 18 17 17 16 15 13 12 9 10 7 6 4 2 3 3 2
22 16 21 28 25 23 18 8 9 9 11 11 15 8 8 12 16 20 23 23 22 22 22 22 22 21 19 19 18 17 17 16 16 16 14 13 11 9 6 5 5 5 3 2
21 23 17 17 25 21 19 17 10 10 10 11 6 7 15 4 5 9 23 25 24 22 22 22 23 21 20 21 20 17 18 17 16 17 16 15 14 12 10 8 7 6 5 3
20 22 23 17 26 20 26 23 13 11 12 12 7 8 6 2 3 6 13 25 24 23 21 22 23 22 22 21 21 19 18 17 16 16 16 14 14 10 9 9 7 6 5 4
20 29 28 22 21 26 24 25 23 13 9 11 11 11 12 14 2 7 15 24 25 24 22 23 23 22 21 21 21 21 19 17 17 16 14 14 13 13 10 9 7 7 6 5
14 17 19 27 19 25 24 22 21 12 18 14 13 10 8 9 3 8 15 23 24 22 22 21 21 21 20 20 19 20 19 18 17 16 14 12 13 13 11 10 11 9 6 6
23 16 23 22 21 23 20 20 20 19 15 12 12 12 13 3 4 11 16 21 23 23 21 20 19 20 19 19 19 19 18 18 16 16 15 14 13 13 12 12 11 10 8 7
26 13 15 27 26 26 27 23 26 16 20 14 10 7 8 2 3 11 18 19 20 21 20 19 19 19 18 18 18 18 18 18 17 15 14 15 13 13 13 12 11 10 9 8
15 14 16 19 23 26 27 28 25 24 17 20 14 7 7 5 5 12 18 19 19 19 20 19 18 18 18 18 17 17 17 17 16 15 16 15 14 14 14 12 11 11 10 10
7 16 23 20 24 23 28 27 28 28 19 19 20 19 12 4 8 11 17 19 18 18 19 19 18 17 17 16 17 17 17 17 16 16 16 15 16 15 13 12 12 11 11 11
5 17 21 25 19 23 26 29 29 28 28 24 19 23 15 6 3 9 12 16 19 20 20 20 20 18 18 17 17 17 17 16 17 17 16 16 15 14 13 13 13 13 13 12
11 9 16 21 23 13 28 30 29 28 28 25 26 19 20 12 4 7 14 16 18 20 21 21 21 20 20 19 18 18 18 16 15 16 17 15 15 15 14 14 14 13 13 12
7 4 9 19 21 21 19 26 30 27 27 27 25 23 16 13 10 10 12 16 19 20 20 21 22 21 20 21 18 19 17 17 16 16 16 15 15 16 15 15 15 15 14 13
8 7 6 11 20 27 18 20 21 24 28 27 25 23 22 15 13 14 11 11 17 20 21 21 20 19 19 20 19 18 18 16 18 17 17 16 16 15 15 15 15 15 14 14
14 8 5 9 16 15 21 21 23 20 19 18 24 26 21 16 19 19 14 12 13 17 17 19 20 21 18 19 18 17 17 18 18 18 17 17 17 17 17 17 15 13 14 13
18 14 9 7 16 24 13 20 8 18 21 21 19 19 18 20 12 13 16 17 16 16 14 16 18 18 19 18 17 17 19 19 19 18 17 16 16 16 17 17 15 15 14 14
14 12 15 12 9 10 3 12 15 19 12 18 21 20 20 19 15 15 14 15 16 14 14 14 15 17 20 18 19 19 17 20 18 15 15 15 16 16 16 15 14 16 15 14
13 11 10 13 13 12 10 8 15 6 15 14 9 22 21 21 20 19 17 12 13 12 12 15 14 15 14 16 18 18 19 15 14 15 15 16 16 14 13 16 14 16 16 16
8 11 9 11 13 2 8 11 13 11 13 14 16 18 12 20 24 24 19 19 17 16 13 13 13 13 14 16 18 19 17 15 16 16 15 16 16 15 14 16 16 14 15 13
6 1 5 1 8 7 12 10 13 13 16 16 15 17 17 17 20 23 20 17 15 15 15 13 13 15 15 16 17 15 14 16 18 17 17 16 17 15 15 12 14 14 14 14
4 3 1 10 6 17 7 18 18 18 17 19 18 17 18 17 19 20 18 15 14 12 12 12 13 13 14 14 16 16 17 18 18 18 17 17 15 15 14 14 13 13 14 14
5 6 2 5 11 9 14 17 20 20 20 19 19 20 17 17 18 15 15 13 10 10 12 13 13 14 15 15 16 16 18 18 19 19 16 15 15 14 12 11 8 19 12 10
Wind_Direction
200 214 215 211 218 254 302 247 249 205 148 221 246 242 168 189 197 185 184 190 197 197 192 190 194 195 193 191 190 191 197 196 200 193 203 204 223 212 242 255 305 324 18 19
203 220 216 221 214 228 245 239 243 258 233 225 260 246 200 187 202 195 193 191 196 193 190 193 194 197 200 194 196 197 205 199 204 197 216 255 276 246 304 293 287 269 15 15
215 214 220 215 213 217 230 238 243 260 166 228 272 255 191 190 200 201 200 197 198 196 193 192 194 199 199 201 198 201 205 207 207 221 206 207 234 239 235 217 217 107 11 354
224 222 206 212 214 211 229 214 254 227 226 256 205 292 182 187 198 199 199 197 196 197 195 189 195 198 202 202 199 203 206 208 208 207 223 231 252 248 204 241 67 292 328 340
211 216 206 212 215 205 231 190 220 235 242 272 221 253 252 179 198 203 203 199 197 193 193 190 191 193 200 200 199 201 205 211 217 206 225 215 230 235 233 244 257 273 246 291
229 206 210 220 216 212 218 200 217 236 252 247 241 231 249 177 221 203 201 197 197 191 192 195 191 190 197 198 200 201 203 210 211 212 209 220 238 238 248 230 271 268 277 297
216 209 222 230 213 208 202 202 214 218 219 241 120 233 251 170 152 202 195 195 191 189 189 191 191 192 194 198 199 200 201 207 209 210 212 214 223 229 239 245 252 290 277 284
203 213 203 197 222 194 209 217 227 210 237 220 156 239 217 139 55 209 204 188 184 188 186 189 190 192 193 197 199 202 197 204 204 208 211 213 215 223 228 231 258 261 268 273
204 217 186 211 206 209 202 218 226 242 223 274 180 225 261 250 265 229 188 175 181 186 183 187 189 189 192 196 198 202 201 202 204 207 207 209 210 222 232 241 237 242 246 260
208 220 194 204 205 226 219 209 222 227 239 221 232 230 249 181 292 180 177 174 176 183 182 184 187 186 190 195 197 200 202 204 204 206 205 208 211 216 223 229 234 248 259 235
234 221 195 200 205 200 205 209 218 218 228 230 235 211 223 245 316 186 174 174 175 180 182 183 185 182 189 191 194 198 202 202 205 206 206 210 212 213 216 224 227 231 226 215
220 211 235 198 206 218 204 207 208 223 202 244 280 209 108 37 277 177 169 172 175 179 180 179 181 179 186 192 192 194 199 203 204 202 205 207 211 210 216 220 220 219 212 198
215 222 209 205 209 206 213 210 210 215 224 204 232 229 118 97 73 176 166 169 173 182 177 176 178 182 185 191 193 196 198 200 199 199 202 207 206 210 217 216 213 208 200 188
270 233 225 211 209 199 213 215 214 211 216 211 212 231 163 153 69 173 169 169 173 180 176 176 181 186 189 191 192 196 198 200 198 198 202 204 207 209 209 208 206 198 184 184
313 227 223 237 217 207 200 217 219 216 218 224 208 221 222 195 66 156 182 170 174 180 182 184 187 188 192 194 195 198 201 199 198 198 202 204 206 205 206 201 199 190 185 180
331 234 239 227 241 236 210 209 219 212 225 222 232 213 224 225 212 145 179 183 191 190 190 193 193 193 195 198 198 198 203 201 196 197 202 204 201 201 202 197 192 177 179 168
313 327 225 223 225 230 233 217 210 219 217 221 226 225 229 211 219 218 179 191 200 199 199 199 201 198 196 199 196 201 202 197 196 200 203 202 200 201 198 192 183 180 170 164
262 307 277 224 208 224 231 216 230 220 222 222 232 230 230 234 224 230 220 216 208 217 206 206 206 203 205 203 198 202 199 195 195 200 205 203 198 198 192 189 184 176 169 170
228 260 262 237 215 218 224 215 209 215 223 243 234 238 235 236 240 242 245 232 228 217 219 221 214 208 202 201 199 195 194 191 197 203 202 199 195 193 189 186 179 172 169 162
211 218 255 203 233 223 217 206 217 228 235 217 227 242 235 240 232 238 224 226 230 232 225 226 221 217 205 204 196 193 193 192 200 199 195 192 190 190 188 181 170 171 166 160
187 207 223 226 248 244 358 239 206 217 236 219 222 224 227 231 225 250 251 211 229 228 230 222 214 210 211 198 188 197 197 204 200 191 189 186 186 187 184 168 162 166 164 152
182 195 196 225 223 234 1 274 239 327 319 297 265 227 226 232 237 237 244 237 231 223 226 207 201 206 200 193 190 194 204 194 184 179 179 182 181 183 172 159 159 165 157 155
216 220 225 206 209 245 4 334 322 326 323 323 323 324 287 237 233 235 239 234 241 236 216 208 207 196 194 193 197 197 202 178 173 172 176 176 174 178 156 162 162 161 161 157
190 330 243 184 211 304 311 9 355 336 319 310 306 298 287 282 264 242 240 235 236 231 216 207 200 201 192 195 199 199 172 168 165 167 170 169 170 163 162 168 169 166 169 170
353 250 219 248 26 322 148 351 337 322 313 303 295 289 286 276 268 256 248 236 223 223 214 199 204 198 191 189 196 185 168 166 169 167 167 168 167 162 164 173 180 176 179 177
35 17 314 48 11 330 321 321 329 322 318 307 296 291 283 275 266 259 259 253 248 227 209 199 195 195 181 183 186 173 168 170 166 162 164 170 160 162 168 156 131 43 85 94